Location: Erraguntapalli
(18.7700°N, 79.7783°E)
Time: 04:36:52
(UTC+00:00)

USA 116 - Pass Details

Date: 15 November 2019
Orbit: 405 x 834 km, 97.9° (Epoch: 18 November)

Event Time Altitude Azimuth Distance (km) Brightness Sun altitude
Rises 00:17:38 0° 159° (SSE) 2,329 7.5 -7.6°
Reaches altitude 10° 00:19:38 10° 154° (SSE) 1,458 6.6 -7.1°
Maximum altitude 00:22:37 50° 77° (ENE) 519 4.1 -6.4°
Drops below altitude 10° 00:25:39 10° 0° (N) 1,480 5.8 -5.8°
Sets 00:27:42 0° 355° (N) 2,371 6.7 -5.3°
